Regional Weather Roundup
Issued by NWS

Home | Current Version | Previous Version | Text Only | Print | Product List | Glossary Off
Versions: 1 2 3 4 5 6 7 8 9 10 11 12 13 14 15 16 17 18 19 20 21 22 23 24 25 26 27 28 29 30 31 32 33 34 35 36 37 38 39 40 41 42 43 44 45 46 47 48 49 50

000
ASUS45 KSLC 262010
RWRUT

UTAH REGIONAL WEATHER ROUNDUP
NATIONAL WEATHER SERVICE SALT LAKE CITY UT
200 PM MDT TUE JUL 26 2016

UTZ001>011-023>025-262100-

NORTHERN UTAH

CITY           SKY/WX    TMP DP  RH WIND       PRES   REMARKS
BRIGHAM CITY     N/A     95  33  11 SW9       30.05F
DUGWAY         MOSUNNY   99  28   8 NW10      30.07F HX  92
HILL AFB       SUNNY     95  44  17 W10       30.09F HX  91
LOGAN          SUNNY     92  39  15 CALM      30.05F
OGDEN          SUNNY     96  43  16 W13G23    30.05F HX  92
PROVO AIRPORT  MOSUNNY   93  45  18 CALM      30.06F
SALT LAKE CITY MOSUNNY   99  39  12 CALM      30.01F HX  94
VERNAL         CLOUDY    89  38  16 W5        30.14F
WENDOVER       SUNNY     93  34  12 E10       30.05F
HEBER CITY     SUNNY     95  36  12 SW13G20   30.12F HX  90

$$

UTZ012>022-026-027-262100-

SOUTHERN/CENTRAL UTAH

CITY           SKY/WX    TMP DP  RH WIND       PRES   REMARKS
BLANDING       PTSUNNY   85  45  24 W3        30.29F
BRYCE CANYON   PTSUNNY   82  37  20 SW14      30.35F
CEDAR CITY     SUNNY     93  42  17 VRB6      30.16F
DELTA          SUNNY     97  34  11 W6        30.08F HX  91
MILFORD        SUNNY     97  36  12 SE12G21   30.09F HX  92
MOAB/CYNLANDS  SUNNY     98  45  16 S9        30.05F HX  94
PRICE          PTSUNNY   91  35  13 VRB7      30.17F
ST GEORGE      CLEAR    100  52  19 W9        29.97F HX  98

$$

REGIONAL REPORTS     COLORADO/ARIZONA

CITY           SKY/WX    TMP DP  RH WIND       PRES   REMARKS
CRAIG, CO      CLOUDY    94  24   8 N5        30.20F
GRAND JUNCTION MOSUNNY   93  43  17 VRB3      30.10F
RIFLE          SUNNY     93  41  16 VRB5      30.16F
MONTROSE       CLOUDY    84  43  23 S5        30.22F
CORTEZ         CLOUDY    87  48  25 W12       30.22F
PAGE, AZ       SUNNY     98  42  14 NW5       30.06F HX  94
GRAND CANYON   LGT RAIN  79  51  37 SW10      30.31F
KINGMAN          N/A    101  46  15 SE10G20   30.02F HX  97
FLAGSTAFF      PTSUNNY   77  47  34 N7        30.32F THUNDER

$$

REGIONAL REPORTS    NEVADA/IDAHO/WYOMING

CITY           SKY/WX    TMP DP  RH WIND       PRES   REMARKS
LAS VEGAS, NV  MOSUNNY  107  45  12 NE9       29.86F HX 102
ELY            SUNNY     92  15   6 VRB6G18   30.22F
ELKO           SUNNY     95  13   5 SW8G20    30.14F
POCATELLO, ID  MOSUNNY   93  37  14 NW10      30.06F
BURLEY         SUNNY     89  36  15 NW3       30.04F
EVANSTON, WY   SUNNY     88  30  12 SW8G28    30.26F
ROCK SPRINGS   SUNNY     89  26  10 NW12G17   30.23F
KEMMERER         N/A    N/A N/A N/A SW9       30.28F

$$



USA.gov is the U.S. government's official web portal to all federal, state and local government web resources and services.